H1 CPF 2 NER 2025 8 9 9 221 01 glonass144 H2 2207501 9144 52984 2025 8 9 0 0 0 2025 8 12 23 45 0 900 1 1 0 0 0 1 H9 10 0 60896 0.00000 0 20597448.764 -4155703.473 -14434605.536 10 0 60896 900.00000 0 22223779.819 -4104146.090 -11801497.210 10 0 60896 1800.00000 0 23511104.589 -4181792.471 -8938798.309 10 0 60896 2700.00000 0 24426181.880 -4340742.011 -5902250.711 10 0 60896 3600.00000 0 24948057.320 -4528302.772 -2750948.048 10 0 60896 4500.00000 0 25068841.218 -4689457.798 453822.151 10 0 60896 5400.00000 0 24793954.895 -4769432.528 3649776.644 10 0 60896 6300.00000 0 24141836.511 -4716253.578 6774850.898 10 0 60896 7200.00000 0 23143120.315 -4483189.969 9768405.460 10 0 60896 8100.00000 0 21839325.189 -4030973.143 12572400.582 10 0 60896 9000.00000 0 20281108.866 -3329701.917 15132516.350 10 0 60896 9900.00000 0 18526162.043 -2360352.091 17399196.960 10 0 60896 10800.00000 0 16636831.194 -1115827.321 19328599.744 10 0 60896 11700.00000 0 14677569.619 398492.785 20883431.664 10 0 60896 12600.00000 0 12712322.884 2164730.394 22033658.353 10 0 60896 13500.00000 0 10801956.853 4153014.227 22757073.373 10 0 60896 14400.00000 0 9001834.291 6322491.012 23039717.981 10 0 60896 15300.00000 0 7359639.500 8622802.434 22876144.328 10 0 60896 16200.00000 0 5913539.939 10995967.459 22269517.763 10 0 60896 17100.00000 0 4690759.797 13378593.362 21231556.553 10 0 60896 18000.00000 0 3706623.591 15704325.289 19782310.067 10 0 60896 18900.00000 0 2964108.535 17906434.267 17949779.117 10 0 60896 19800.00000 0 2453923.612 19920437.699 15769384.870 10 0 60896 20700.00000 0 2155111.667 21686644.561 13283295.419 10 0 60896 21600.00000 0 2036149.194 23152520.255 10539621.726 10 0 60896 22500.00000 0 2056497.812 24274772.967 7591497.184 10 0 60896 23400.00000 0 2168542.452 25021074.402 4496057.530 10 0 60896 24300.00000 0 2319834.850 25371342.551 1313339.979 10 0 60896 25200.00000 0 2455547.784 25318532.036 -1894877.650 10 0 60896 26100.00000 0 2521036.229 24868897.944 -5066275.431 10 0 60896 27000.00000 0 2464396.647 24041721.026 -8139204.065 10 0 60896 27900.00000 0 2238915.297 22868504.785 -11053887.877 10 0 60896 28800.00000 0 1805300.774 21391677.287 -13753593.992 10 0 60896 29700.00000 0 1133604.847 19662851.566 -16185744.224 10 0 60896 30600.00000 0 204748.590 17740717.248 -18302947.248 10 0 60896 31500.00000 0 -988412.482 15688651.733 -20063930.160 10 0 60896 32400.00000 0 -2440531.213 13572151.241 -21434350.647 10 0 60896 33300.00000 0 -4133744.897 11456189.584 -22387473.395 10 0 60896 34200.00000 0 -6038187.394 9402615.662 -22904697.117 10 0 60896 35100.00000 0 -8113017.308 7467698.928 -22975921.626 10 0 60896 36000.00000 0 -10307920.291 5699925.692 -22599747.595 10 0 60896 36900.00000 0 -12565023.408 4138138.517 -21783504.931 10 0 60896 37800.00000 0 -14821141.948 2810096.280 -20543109.172 10 0 60896 38700.00000 0 -17010264.878 1731514.596 -18902748.648 10 0 60896 39600.00000 0 -19066174.896 905625.918 -16894408.594 10 0 60896 40500.00000 0 -20925093.191 323276.496 -14557241.676 10 0 60896 41400.00000 0 -22528237.887 -36445.396 -11936797.500 10 0 60896 42300.00000 0 -23824188.734 -205078.207 -9084126.638 10 0 60896 43200.00000 0 -24770958.790 -223202.366 -6054777.289 10 0 60896 44100.00000 0 -25337686.273 -138470.853 -2907704.897 10 0 60896 45000.00000 0 -25505875.973 -3340.109 295883.119 10 0 60896 45900.00000 0 -25270138.729 127401.118 3493724.145 10 0 60896 46800.00000 0 -24638398.969 199199.113 6623714.573 10 0 60896 47700.00000 0 -23631562.749 160289.113 9625117.166 10 0 60896 48600.00000 0 -22282661.513 -35872.826 12439737.793 10 0 60896 49500.00000 0 -20635508.666 -428403.005 15013048.735 10 0 60896 50400.00000 0 -18742926.237 -1047101.472 17295237.150 10 0 60896 51300.00000 0 -16664616.509 -1910960.978 19242159.159 10 0 60896 52200.00000 0 -14464767.774 -3027136.010 20816182.204 10 0 60896 53100.00000 0 -12209493.891 -4390415.011 21986900.610 10 0 60896 54000.00000 0 -9964213.597 -5983217.977 22731711.921 10 0 60896 54900.00000 0 -7791077.488 -7776119.891 23036244.170 10 0 60896 55800.00000 0 -5746548.227 -9728878.886 22894626.894 10 0 60896 56700.00000 0 -3879232.882 -11791927.327 22309601.409 10 0 60896 57600.00000 0 -2228055.777 -13908265.133 21292468.557 10 0 60896 58500.00000 0 -820846.276 -16015678.094 19862874.805 10 0 60896 59400.00000 0 326601.132 -18049190.516 18048440.284 10 0 60896 60300.00000 0 1210956.339 -19943651.709 15884235.014 10 0 60896 61200.00000 0 1841255.485 -21636349.905 13412112.295 10 0 60896 62100.00000 0 2238279.689 -23069545.616 10679910.821 10 0 60896 63000.00000 0 2433436.793 -24192819.317 7740539.659 10 0 60896 63900.00000 0 2467192.967 -24965135.351 4650962.684 10 0 60896 64800.00000 0 2387120.045 -25356535.362 1471101.226 10 0 60896 65700.00000 0 2245640.791 -25349389.498 -1737324.354 10 0 60896 66600.00000 0 2097567.364 -24939151.840 -4911991.896 10 0 60896 67500.00000 0 1997537.315 -24134587.049 -7991190.097 10 0 60896 68400.00000 0 1997456.236 -22957457.434 -10915022.625 10 0 60896 69300.00000 0 2144056.199 -21441682.309 -13626579.609 10 0 60896 70200.00000 0 2476674.570 -19632003.925 -16073052.952 10 0 60896 71100.00000 0 3025348.641 -17582215.116 -18206772.989 10 0 60896 72000.00000 0 3809308.301 -15353022.527 -19986145.498 10 0 60896 72900.00000 0 4835932.161 -13009634.689 -21376470.156 10 0 60896 73800.00000 0 6100212.931 -10619175.897 -22350623.965 10 0 60896 74700.00000 0 7584756.225 -8248034.239 -22889595.878 10 0 60896 75600.00000 0 9260314.325 -5959254.824 -22982861.903 10 0 60896 76500.00000 0 11086833.751 -3810087.258 -22628593.170 10 0 60896 77400.00000 0 13014973.535 -1849789.879 -21833692.740 10 0 60896 78300.00000 0 14988031.152 -117782.296 -20613660.356 10 0 60896 79200.00000 0 16944195.635 1357777.066 -18992287.766 10 0 60896 80100.00000 0 18819033.393 2560929.671 -17001190.608 10 0 60896 81000.00000 0 20548102.242 3488333.693 -14679186.176 10 0 60896 81900.00000 0 22069583.665 4149142.986 -12071529.483 10 0 60896 82800.00000 0 23326822.440 4564355.050 -9229023.062 10 0 60896 83700.00000 0 24270666.553 4765657.384 -6207018.432 10 0 60896 84600.00000 0 24861509.074 4793822.952 -3064329.535 10 0 60896 85500.00000 0 25070946.070 4696724.454 137919.838 10 0 60897 0.00000 0 24882981.271 4527053.236 3337491.019 10 0 60897 900.00000 0 24294727.339 4339840.763 6472245.463 10 0 60897 1800.00000 0 23316575.407 4189889.012 9481351.244 10 0 60897 2700.00000 0 21971826.440 4129218.933 12306462.954 10 0 60897 3600.00000 0 20295800.999 4204645.504 14892847.855 10 0 60897 4500.00000 0 18334465.548 4455581.734 17190438.478 10 0 60897 5400.00000 0 16142633.410 4912164.036 19154791.780 10 0 60897 6300.00000 0 13781815.730 5593777.527 20747937.344 10 0 60897 7200.00000 0 11317811.932 6508042.860 21939099.484 10 0 60897 8100.00000 0 8818139.339 7650306.856 22705280.649 10 0 60897 9000.00000 0 6349407.761 9003658.281 23031696.189 10 0 60897 9900.00000 0 3974746.697 10539468.456 22912053.152 10 0 60897 10800.00000 0 1751390.320 12218434.831 22348668.521 10 0 60897 11700.00000 0 -271481.350 13992085.092 21352424.956 10 0 60897 12600.00000 0 -2054557.111 15804680.406 19942564.822 10 0 60897 13500.00000 0 -3569791.258 17595440.003 18146325.928 10 0 60897 14400.00000 0 -4801325.493 19300995.860 15998425.130 10 0 60897 15300.00000 0 -5745898.544 20857976.475 13540398.574 10 0 60897 16200.00000 0 -6412727.034 22205612.932 10819810.071 10 0 60897 17100.00000 0 -6822862.893 23288259.068 7889341.541 10 0 60897 18000.00000 0 -7008054.290 24057720.454 4805782.033 10 0 60897 18900.00000 0 -7009157.911 24475294.384 1628933.962 10 0 60897 19800.00000 0 -6874169.303 24513434.555 -1579542.834 10 0 60897 20700.00000 0 -6655954.382 24156969.435 -4757326.979 10 0 60897 21600.00000 0 -6409778.074 23403821.756 -7842648.061 10 0 60897 22500.00000 0 -6190735.004 22265197.362 -10775491.813 10 0 60897 23400.00000 0 -6051191.644 20765233.921 -13498773.837 10 0 60897 24300.00000 0 -6038349.118 18940122.852 -15959458.317 10 0 60897 25200.00000 0 -6192031.003 16836740.083 -18109599.138 10 0 60897 26100.00000 0 -6542791.102 14510842.139 -19907282.343 10 0 60897 27000.00000 0 -7110422.624 12024902.498 -21317450.900 10 0 60897 27900.00000 0 -7902933.297 9445678.362 -22312595.150 10 0 60897 28800.00000 0 -8916031.071 6841609.481 -22873295.026 10 0 60897 29700.00000 0 -10133143.475 4280157.676 -22988603.184 10 0 60897 30600.00000 0 -11525970.899 1825198.170 -22656261.337 10 0 60897 31500.00000 0 -13055551.451 -465428.352 -21882745.449 10 0 60897 32400.00000 0 -14673793.192 -2542100.960 -20683138.838 10 0 60897 33300.00000 0 -16325409.674 -4365250.096 -19080835.617 10 0 60897 34200.00000 0 -17950177.456 -5906759.714 -17107080.379 10 0 60897 35100.00000 0 -19485420.490 -7150882.317 -14800353.229 10 0 60897 36000.00000 0 -20868616.578 -8094629.884 -12205612.484 10 0 60897 36900.00000 0 -22040015.707 -8747625.955 -9373410.269 10 0 60897 37800.00000 0 -22945159.737 -9131427.040 -6358898.904 10 0 60897 38700.00000 0 -23537196.937 -9278343.979 -3220748.182 10 0 60897 39600.00000 0 -23778893.631 -9229815.015 -19995.528 10 0 60897 40500.00000 0 -23644258.415 -9034401.355 3181147.676 10 0 60897 41400.00000 0 -23119710.723 -8745491.669 6320509.595 10 0 60897 42300.00000 0 -22204745.152 -8418814.089 9337166.981 10 0 60897 43200.00000 0 -20912064.367 -8109861.943 12172625.900 10 0 60897 44100.00000 0 -19267175.662 -7871342.631 14771951.229 10 0 60897 45000.00000 0 -17307468.811 -7750757.542 17084823.335 10 0 60897 45900.00000 0 -15080814.332 -7788214.946 19066502.224 10 0 60897 46800.00000 0 -12643740.910 -8014567.498 20678681.531 10 0 60897 47700.00000 0 -10059267.846 -8449952.135 21890217.113 10 0 60897 48600.00000 0 -7394482.166 -9102793.121 22677717.499 10 0 60897 49500.00000 0 -4717960.050 -9969309.655 23025986.148 10 0 60897 50400.00000 0 -2097138.302 -11033548.562 22928308.042 10 0 60897 51300.00000 0 404256.791 -12267940.978 22386575.903 10 0 60897 52200.00000 0 2728618.387 -13634360.429 21411253.958 10 0 60897 53100.00000 0 4826607.671 -15085639.104 20021179.904 10 0 60897 54000.00000 0 6658954.600 -16567480.287 18243208.359 10 0 60897 54900.00000 0 8197837.448 -18020688.449 16111701.814 10 0 60897 55800.00000 0 9427784.804 -19383625.151 13667877.741 10 0 60897 56700.00000 0 10346063.231 -20594789.205 10959023.192 10 0 60897 57600.00000 0 10962534.810 -21595413.939 8037590.732 10 0 60897 58500.00000 0 11298990.679 -22331973.057 4960192.070 10 0 60897 59400.00000 0 11387988.534 -22758489.906 1786507.933 10 0 60897 60300.00000 0 11271242.838 -22838552.554 -1421865.311 10 0 60897 61200.00000 0 10997635.480 -22546948.923 -4602610.131 10 0 60897 62100.00000 0 10620930.857 -21870851.820 -7693900.107 10 0 60897 63000.00000 0 10197292.124 -20810502.344 -10635606.108 10 0 60897 63900.00000 0 9782704.106 -19379361.165 -13370472.201 10 0 60897 64800.00000 0 9430412.588 -17603719.601 -15845237.696 10 0 60897 65700.00000 0 9188489.240 -15521785.184 -18011682.682 10 0 60897 66600.00000 0 9097626.283 -13182278.792 -19827575.852 10 0 60897 67500.00000 0 9189255.345 -10642601.045 -21257505.516 10 0 60897 68400.00000 0 9484071.227 -7966643.951 -22273577.014 10 0 60897 69300.00000 0 9991024.125 -5222338.835 -22855962.500 10 0 60897 70200.00000 0 10706823.912 -2479042.724 -22993292.059 10 0 60897 71100.00000 0 11615978.333 195127.900 -22682878.339 10 0 60897 72000.00000 0 12691364.219 2735904.754 -21930770.130 10 0 60897 72900.00000 0 13895308.121 5085308.204 -20751633.836 10 0 60897 73800.00000 0 15181131.117 7193818.954 -19168465.067 10 0 60897 74700.00000 0 16495092.647 9022190.763 -17212136.113 10 0 60897 75600.00000 0 17778651.286 10542829.245 -14920788.253 10 0 60897 76500.00000 0 18970946.724 11740680.189 -12339081.070 10 0 60897 77400.00000 0 20011397.787 12613591.561 -9517313.880 10 0 60897 78300.00000 0 20842306.388 13172135.825 -6510437.033 10 0 60897 79200.00000 0 21411357.027 13438901.989 -3376973.105 10 0 60897 80100.00000 0 21673906.003 13447289.294 -177869.893 10 0 60897 81000.00000 0 21594963.545 13239855.511 3024691.600 10 0 60897 81900.00000 0 21150785.266 12866291.499 6168510.187 10 0 60897 82800.00000 0 20330006.216 12381109.301 9192574.237 10 0 60897 83700.00000 0 19134270.127 11841142.697 12038244.301 10 0 60897 84600.00000 0 17578327.960 11302966.633 14650385.620 10 0 60897 85500.00000 0 15689602.124 10820344.799 16978428.838 10 0 60898 0.00000 0 13507235.173 10441812.922 18977338.965 10 0 60898 900.00000 0 11080661.691 10208498.945 20608475.852 10 0 60898 1800.00000 0 8467765.767 10152271.529 21840328.179 10 0 60898 2700.00000 0 5732696.304 10294293.177 22649111.702 10 0 60898 3600.00000 0 2943432.861 10644038.433 23019218.775 10 0 60898 4500.00000 0 169200.633 11198817.537 22943512.717 10 0 60898 5400.00000 0 -2522159.668 11943825.254 22423461.964 10 0 60898 6300.00000 0 -5066759.850 12852713.005 21469111.837 10 0 60898 7200.00000 0 -7407065.550 13888660.895 20098894.416 10 0 60898 8100.00000 0 -9494032.985 15005905.710 18339279.721 10 0 60898 9000.00000 0 -11288894.019 16151662.092 16224274.035 10 0 60898 9900.00000 0 -12764516.491 17268357.681 13794773.946 10 0 60898 10800.00000 0 -13906284.092 18296089.755 11097787.244 10 0 60898 11700.00000 0 -14712459.546 19175201.291 8185534.422 10 0 60898 12600.00000 0 -15194016.141 19848868.852 5114446.991 10 0 60898 13500.00000 0 -15373944.602 20265593.673 1944081.050 10 0 60898 14400.00000 0 -15286064.284 20381490.776 -1264033.474 10 0 60898 15300.00000 0 -14973388.482 20162278.858 -4447585.848 10 0 60898 16200.00000 0 -14486112.655 19584885.845 -7544696.539 10 0 60898 17100.00000 0 -13879310.482 18638600.832 -10495124.331 10 0 60898 18000.00000 0 -13210435.337 17325722.034 -13241444.359 10 0 60898 18900.00000 0 -12536733.224 15661671.557 -15730173.442 10 0 60898 19800.00000 0 -11912677.240 13674570.250 -17912819.966 10 0 60898 20700.00000 0 -11387532.843 11404288.828 -19746837.076 10 0 60898 21600.00000 0 -11003157.773 8901013.559 -21196459.905 10 0 60898 22500.00000 0 -10792130.535 6223385.450 -22233409.959 10 0 60898 23400.00000 0 -10776287.413 3436289.941 -22837452.456 10 0 60898 24300.00000 0 -10965730.586 608388.868 -22996795.440 10 0 60898 25200.00000 0 -11358349.874 -2190502.605 -22708322.671 10 0 60898 26100.00000 0 -11939878.760 -4892084.854 -21977655.600 10 0 60898 27000.00000 0 -12684482.579 -7432177.272 -20819043.168 10 0 60898 27900.00000 0 -13555854.133 -9753147.990 -19255081.558 10 0 60898 28800.00000 0 -14508770.281 -11806068.728 -17316269.463 10 0 60898 29700.00000 0 -15491043.479 -13552505.362 -15040407.706 10 0 60898 30600.00000 0 -16445785.305 -14965870.145 -12471855.211 10 0 60898 31500.00000 0 -17313885.740 -16032280.152 -9660656.327 10 0 60898 32400.00000 0 -18036602.764 -16750887.463 -6661557.099 10 0 60898 33300.00000 0 -18558152.137 -17133668.905 -3532930.425 10 0 60898 34200.00000 0 -18828187.383 -17204686.244 -335631.906 10 0 60898 35100.00000 0 -18804064.672 -16998849.924 2868190.481 10 0 60898 36000.00000 0 -18452796.812 -16560240.581 6016308.890 10 0 60898 36900.00000 0 -17752613.849 -15940060.903 9047626.054 10 0 60898 37800.00000 0 -16694064.707 -15194305.789 11903359.741 10 0 60898 38700.00000 0 -15280613.817 -14381250.157 14528178.215 10 0 60898 39600.00000 0 -13528707.966 -13558860.906 16871264.924 10 0 60898 40500.00000 0 -11467310.874 -12782242.155 18887292.541 10 0 60898 41400.00000 0 -9136925.019 -12101220.934 20537288.471 10 0 60898 42300.00000 0 -6588141.399 -11558174.040 21789376.362 10 0 60898 43200.00000 0 -3879777.071 -11186186.364 22619380.606 10 0 60898 44100.00000 0 -1076677.010 -11007616.832 23011283.519 10 0 60898 45000.00000 0 1752729.724 -11033131.101 22957527.475 10 0 60898 45900.00000 0 4539019.732 -11261240.771 22459157.027 10 0 60898 46800.00000 0 7214405.406 -11678367.983 21525798.671 10 0 60898 47700.00000 0 9715298.257 -12259432.727 20175478.660 10 0 60898 48600.00000 0 11984700.987 -12968938.662 18434281.884 10 0 60898 49500.00000 0 13974330.652 -13762512.740 16335857.572 10 0 60898 50400.00000 0 15646385.973 -14588835.035 13920780.202 10 0 60898 51300.00000 0 16974886.219 -15391878.883 11235776.681 10 0 60898 52200.00000 0 17946526.385 -16113368.192 8332833.391 10 0 60898 53100.00000 0 18561013.161 -16695349.282 5268199.191 10 0 60898 54000.00000 0 18830867.547 -17082769.353 2101302.736 10 0 60898 54900.00000 0 18780702.151 -17225952.794 -1106395.610 10 0 60898 55800.00000 0 18446003.217 -17082870.311 -4292595.214 10 0 60898 56700.00000 0 17871468.352 -16621104.025 -7395366.819 10 0 60898 57600.00000 0 17108969.841 -15819424.159 -10354360.487 10 0 60898 58500.00000 0 16215229.484 -14668908.957 -13111985.677 10 0 60898 59400.00000 0 15249303.351 -13173558.637 -15614539.781 10 0 60898 60300.00000 0 14269983.067 -11350375.460 -17813262.312 10 0 60898 61200.00000 0 13333224.019 -9228904.578 -19665293.398 10 0 60898 62100.00000 0 12489709.741 -6850253.154 -21134517.181 10 0 60898 63000.00000 0 11782656.056 -4265627.345 -22192273.131 10 0 60898 63900.00000 0 11245948.326 -1534447.240 -22817920.900 10 0 60898 64800.00000 0 10902690.994 1277882.337 -22999247.420 10 0 60898 65700.00000 0 10764231.005 4102452.648 -22732708.041 10 0 60898 66600.00000 0 10829696.536 6869480.281 -22023496.909 10 0 60898 67500.00000 0 11086070.487 9510975.350 -20885445.116 10 0 60898 68400.00000 0 11508795.421 11963337.507 -19340748.621 10 0 60898 69300.00000 0 12062883.996 14169771.597 -17419531.330 10 0 60898 70200.00000 0 12704487.372 16082422.407 -15159252.016 10 0 60898 71100.00000 0 13382854.570 17664139.862 -12603966.976 10 0 60898 72000.00000 0 14042599.108 18889801.601 -9803463.229 10 0 60898 72900.00000 0 14626176.081 19747138.612 -6812279.801 10 0 60898 73800.00000 0 15076464.106 20237030.870 -3688636.887 10 0 60898 74700.00000 0 15339342.006 20373262.123 -493294.635 10 0 60898 75600.00000 0 15366150.590 20181746.056 2711635.385 10 0 60898 76500.00000 0 15115935.020 19699258.425 5863902.076 10 0 60898 77400.00000 0 14557372.775 18971730.383 8902325.832 10 0 60898 78300.00000 0 13670305.837 18052176.558 11767984.756 10 0 60898 79200.00000 0 12446812.651 16998346.442 14405352.990 10 0 60898 80100.00000 0 10891774.967 15870198.765 16763369.351 10 0 60898 81000.00000 0 9022915.949 14727305.471 18796416.249 10 0 60898 81900.00000 0 6870307.979 13626294.158 20465190.922 10 0 60898 82800.00000 0 4475370.555 12618435.764 21737453.362 10 0 60898 83700.00000 0 1889399.576 11747477.621 22588637.828 10 0 60898 84600.00000 0 -828311.669 11047811.443 23002317.456 10 0 60898 85500.00000 0 -3612682.889 10543051.695 22970514.149 10 0 60899 0.00000 0 -6395298.149 10245082.653 22493848.674 10 0 60899 900.00000 0 -9106999.757 10153612.994 21581528.207 10 0 60899 1800.00000 0 -11680515.289 10256256.362 20251172.298 10 0 60899 2700.00000 0 -14053015.595 10529133.861 18528479.349 10 0 60899 3600.00000 0 -16168495.597 10937973.927 16446739.714 10 0 60899 4500.00000 0 -17979881.799 11439663.859 14046203.558 10 0 60899 5400.00000 0 -19450779.613 11984188.682 11373314.382 10 0 60899 6300.00000 0 -20556788.290 12516876.683 8479821.698 10 0 60899 7200.00000 0 -21286328.729 12980857.841 5421788.818 10 0 60899 8100.00000 0 -21640949.430 13319631.995 2258513.977 10 0 60899 9000.00000 0 -21635097.401 13479638.527 -948614.995 10 0 60899 9900.00000 0 -21295363.121 13412718.669 -4137310.533 10 0 60899 10800.00000 0 -20659230.830 13078365.597 -7245596.552 10 0 60899 11700.00000 0 -19773386.304 12445665.931 -10213017.198 10 0 60899 12600.00000 0 -18691653.201 11494848.994 -12981818.916 10 0 60899 13500.00000 0 -17472644.967 10218376.439 -15498082.131 10 0 60899 14400.00000 0 -16177231.460 8621524.249 -17712779.681 10 0 60899 15300.00000 0 -14865927.561 6722430.453 -19582740.541 10 0 60899 16200.00000 0 -13596314.362 4551604.570 -21071499.374 10 0 60899 17100.00000 0 -12420602.178 2150917.558 -22150014.729 10 0 60899 18000.00000 0 -11383438.630 -427886.858 -22797241.423 10 0 60899 18900.00000 0 -10520054.568 -3125098.386 -23000545.601 10 0 60899 19800.00000 0 -9854826.157 -5875285.032 -22755954.161 10 0 60899 20700.00000 0 -9400313.785 -8609783.418 -22068233.525 10 0 60899 21600.00000 0 -9156818.046 -11259330.892 -20950796.173 10 0 60899 22500.00000 0 -9112471.082 -13756729.775 -19425436.746 10 0 60899 23400.00000 0 -9243858.757 -16039432.557 -17521902.960 10 0 60899 24300.00000 0 -9517146.503 -18051940.243 -15277309.900 10 0 60899 25200.00000 0 -9889660.266 -19747913.873 -12735409.367 10 0 60899 26100.00000 0 -10311854.567 -21091911.296 -9945729.036 10 0 60899 27000.00000 0 -10729583.241 -22060677.299 -6962598.790 10 0 60899 27900.00000 0 -11086575.633 -22643934.024 -3844083.918 10 0 60899 28800.00000 0 -11327012.320 -22844639.815 -650846.851 10 0 60899 29700.00000 0 -11398090.466 -22678707.301 2555039.554 10 0 60899 30600.00000 0 -11252469.493 -22174194.208 5711303.294 10 0 60899 31500.00000 0 -10850493.197 -21370002.799 8756684.832 10 0 60899 32400.00000 0 -10162094.268 -20314144.387 11632125.023 10 0 60899 33300.00000 0 -9168300.787 -19061643.218 14281906.300 10 0 60899 34200.00000 0 -7862281.357 -17672168.891 16654725.196 10 0 60899 35100.00000 0 -6249885.080 -16207497.322 18704676.068 10 0 60899 36000.00000 0 -4349653.749 -14728906.772 20392128.010 10 0 60899 36900.00000 0 -2192305.621 -13294617.638 21684479.147 10 0 60899 37800.00000 0 180288.118 -11957382.257 22556775.115 10 0 60899 38700.00000 0 2716592.293 -10762324.279 22992181.096 10 0 60899 39600.00000 0 5357301.261 -9745116.499 22982299.454 10 0 60899 40500.00000 0 8037559.793 -8930571.808 22527327.698 10 0 60899 41400.00000 0 10689420.821 -8331704.830 21636054.231 10 0 60899 42300.00000 0 13244439.908 -7949302.415 20325691.962 10 0 60899 43200.00000 0 15636300.614 -7772020.287 18621552.618 10 0 60899 44100.00000 0 17803363.496 -7777001.537 16556567.192 10 0 60899 45000.00000 0 19691034.191 -7930991.157 14170660.689 10 0 60899 45900.00000 0 21253853.168 -8191900.259 11509991.966 10 0 60899 46800.00000 0 22457220.679 -8510754.824 8626071.994 10 0 60899 47700.00000 0 23278685.109 -8833947.555 5574776.411 10 0 60899 48600.00000 0 23708740.695 -9105698.407 2415270.478 10 0 60899 49500.00000 0 23751100.712 -9270620.147 -791133.460 10 0 60899 50400.00000 0 23422434.014 -9276280.391 -3982164.122 10 0 60899 51300.00000 0 22751575.235 -9075651.227 -7095801.999 10 0 60899 52200.00000 0 21778241.228 -8629341.769 -10071488.759 10 0 60899 53100.00000 0 20551307.175 -7907517.800 -12851311.207 10 0 60899 54000.00000 0 19126714.665 -6891425.598 -15381136.015 10 0 60899 54900.00000 0 17565099.714 -5574453.561 -17611672.330 10 0 60899 55800.00000 0 15929240.741 -3962684.763 -19499440.694 10 0 60899 56700.00000 0 14281434.239 -2074915.056 -21007628.691 10 0 60899 57600.00000 0 12680908.964 57865.990 -22106816.015 10 0 60899 58500.00000 0 11181387.823 2393511.255 -22775554.335 10 0 60899 59400.00000 0 9828900.342 4880227.303 -23000790.306 10 0 60899 60300.00000 0 8659937.816 7458498.545 -22778123.240 10 0 60899 61200.00000 0 7700028.711 10063344.554 -22111892.275 10 0 60899 62100.00000 0 6962793.891 12626816.687 -21015091.264 10 0 60899 63000.00000 0 6449520.829 15080629.901 -19509113.072 10 0 60899 63900.00000 0 6149273.883 17358819.857 -17623328.332 10 0 60899 64800.00000 0 6039534.879 19400314.243 -15394507.086 10 0 60899 65700.00000 0 6087345.685 21151310.865 -12866094.854 10 0 60899 66600.00000 0 6250903.091 22567363.049 -10087357.751 10 0 60899 67500.00000 0 6481537.088 23615085.497 -7112413.884 10 0 60899 68400.00000 0 6725987.426 24273409.685 -3999170.649 10 0 60899 69300.00000 0 6928880.710 24534337.088 -808189.497 10 0 60899 70200.00000 0 7035301.963 24403159.835 2398498.893 10 0 60899 71100.00000 0 6993350.834 23898140.939 5558605.173 10 0 60899 72000.00000 0 6756573.600 23049669.229 8610793.368 10 0 60899 72900.00000 0 6286167.700 21898925.972 11495870.461 10 0 60899 73800.00000 0 5552865.578 20496120.670 14157930.332 10 0 60899 74700.00000 0 4538418.391 18898371.176 16545430.087 10 0 60899 75600.00000 0 3236617.254 17167317.727 18612178.581 10 0 60899 76500.00000 0 1653809.179 15366571.056 20318218.954 10 0 60899 77400.00000 0 -191113.921 13559101.125 21630589.300 10 0 60899 78300.00000 0 -2267253.033 11804674.793 22523948.082 10 0 60899 79200.00000 0 -4532744.804 10157448.236 22981053.578 10 0 60899 80100.00000 0 -6936266.746 8663813.112 22993089.227 10 0 60899 81000.00000 0 -9418943.573 7360584.677 22559829.504 10 0 60899 81900.00000 0 -11916577.027 6273605.821 21689643.621 10 0 60899 82800.00000 0 -14362108.299 5416823.892 20399337.042 10 0 60899 83700.00000 0 -16688212.592 4791877.699 18713833.478 10 0 60899 84600.00000 0 -18829919.752 4388211.249 16665702.737 10 0 60899 85500.00000 0 -20727153.455 4183709.108 14294542.404 99